Regional Weather Roundup
Issued by NWS Grand Forks, ND

Home | Current Version | Previous Version | Text Only | Print | Product List | Glossary On
Versions: 1 2 3 4 5 6 7 8 9 10 11 12 13 14 15 16 17 18 19 20 21 22 23 24 25 26 27 28 29 30 31 32 33 34 35 36 37 38 39 40 41 42 43 44 45 46 47 48 49 50
000
ASUS43 KFGF 280910
RWRFGF
PRAIRIE TO PINES  WEATHER ROUNDUP
NATIONAL WEATHER SERVICE EASTERN NORTH DAKOTA/GRAND FORKS ND
300 AM CST TUE FEB 28 2017

 **SATELLITE DATA USED TO AUGMENT SKY COVER AT AUTOMATED STATIONS**
 *****  WEATHER ACROSS EASTERN NORTH DAKOTA  *****

CITY           SKY/WX    TMP DP  RH WIND       PRES   REMARKS
GRAND FORKS    CLOUDY    16   7  67 N14       29.93S WCI   2
GRAND FRKS AFB CLOUDY    13   7  78 N12       29.94R WCI  -1
DEVILS LAKE    FLURRIES   6   3  87 NE7       29.93R WCI  -6
FARGO          FAIR      22  19  89 N16       29.86F WCI   8
WAHPETON ARPT  CLOUDY    27  21  80 N14       29.82F WCI  15
$$

 ***** WEATHER ACROSS CENTRAL AND WESTERN NORTH DAKOTA  *****

CITY           SKY/WX    TMP DP  RH WIND       PRES   REMARKS
BISMARCK       CLOUDY    20  17  88 NE9       29.85F WCI   9
MINOT          CLOUDY     6   2  83 NW3       29.89S
JAMESTOWN      MOCLDY    15  12  88 N10       29.86R WCI   2
MINOT AFB      CLOUDY     5   0  78 CALM      29.89F
GARRISON         N/A      7   5  91 NE6       29.86F WCI  -3
WILLISTON      CLOUDY     9   5  84 CALM      29.83F
DICKINSON      CLOUDY    13  10  88 E7        29.74F WCI   3
HETTINGER      CLOUDY    19  17  92 E13       29.74F WCI   6
$$

 *****  OTHER AIRPORT OBSERVATIONS IN OUR AREA  *****

CITY           SKY/WX    TMP DP  RH WIND       PRES   REMARKS
WALHALLA       NOT AVBL
GRAFTON AIRPOR FAIR       9   3  78 N10       29.97S WCI  -6
VALLEY CITY AR FAIR      14  14 100 NE13      29.88R WCI   0
CANDO          NOT AVBL
CAVALIER APRT    N/A      5   1  85 N6        29.98S WCI  -6
GWINNER        FAIR      23  21  93 N17       29.83F WCI   9
SHEYENNE NWR     N/A     19  15  84 N9        29.95S WCI   8
ROLLA          FAIR       0  -2  92 N6        29.91S WCI -12
 ***** THE ABOVE OBSERVATIONS ARE NON NWS ARE NOT QUALITY
       CONTROLLED AND MAY MIS-REPORT RAIN FOR SNOW...
$$

  *****  WEATHER ACROSS NORTHERN MINNESOTA  *****

CITY           SKY/WX    TMP DP  RH WIND       PRES   REMARKS
FLAG ISLAND    MOCLDY    10   7  85 N8        29.94S WCI  -1
WARROAD        FAIR      14  10  85 N8        29.93F WCI   3
ROSEAU         CLOUDY    10   7  85 N7        29.93F WCI   0
HALLOCK        FAIR       9   3  78 N9        29.96S WCI  -5
THF RVR FALLS  FAIR      19  15  84 NE13      29.90S WCI   6
BAUDETTE       CLOUDY    18  13  80 N9        29.89F WCI   7
WASKISH        CLOUDY    21  18  86 NE7       29.87R WCI  13
CROOKSTON      CLOUDY    19  18  93 NE8       29.91F WCI   9
GREENBUSH NDAW   N/A     -2  -6  84 N3          N/A
$$
  *****  WEATHER ACROSS CENTRAL AND WEST MINNESOTA  *****

CITY           SKY/WX    TMP DP  RH WIND       PRES   REMARKS
FOSSTON        CLOUDY    21  16  79 NE10      29.85F WCI  10
BEMIDJI        FAIR      23  14  69 N9        29.82S WCI  13
PARK RAPIDS    FAIR      27  16  63 N7        29.79S WCI  19
ELBOW LAKE     CLOUDY    30  28  91 N6        29.79F WCI  24
WADENA         CLOUDY    28  25  86 N5        29.78R WCI  23
DETROIT LAKES  FAIR      28  21  74 NE6       29.81R WCI  22
MOORHEAD       FAIR      23  19  86 N15       29.86S WCI  10
FERGUS FALLS   CLOUDY    27  21  80 N5        29.84S WCI  21
MORRIS MN      LGT SNOW  30  30 100 N9        29.78S WCI  22
STAPLES        FLURRIES  30  27  86 CALM      29.79R
$$
  *****  WEATHER ELSEWHERE ACROSS MINNESOTA  *****

CITY           SKY/WX    TMP DP  RH WIND       PRES   REMARKS
DULUTH         CLOUDY    28  25  88 NE3       29.80S
INTRNTL FALLS  CLOUDY    21  17  84 NE7       29.87F WCI  12
ELY            LGT SNOW  25  23  93 CALM      29.82S
CLOQUET        CLOUDY    28  25  86 CALM      29.80F
WHEATON        FLURRIES  27  23  86 NW12      29.83S WCI  16
BRAINERD       CLOUDY    32  26  78 CALM      29.78S
HIBBING        FLURRIES  28  25  88 N6        29.80R WCI  22
ALEXANDRIA     CLOUDY    32  28  85 NW3       29.78R
SAINT CLOUD    CLOUDY    34  28  79 N5        29.78S
MINNEAPOLIS    CLOUDY    37  28  70 CALM      29.76S
$$

  *****  WEATHER ACROSS SOUTH DAKOTA  *****

CITY           SKY/WX    TMP DP  RH WIND       PRES   REMARKS
SIOUX FALLS    FAIR      33  30  88 NE6       29.65F
BROOKINGS      CLOUDY    33  29  85 NE8       29.68F
WATERTOWN      CLOUDY    28  26  92 N14       29.72S WCI  17
HURON          CLOUDY    33  29  85 N13       29.70F WCI  24
SISSETON         N/A     25  24  96 N14       29.79F WCI  13
ABERDEEN       LGT SNOW  24  20  84 N16       29.80S FOG     WCI  11
MITCHELL       MOCLDY    33  30  88 N8        29.69S
PIERRE         CLOUDY    29  27  92 NE13      29.72S WCI  19
MOBRIDGE       CLOUDY    26  21  81 NE14      29.75F WCI  14
RAPID CITY     CLOUDY    25  22  88 N6        29.67S WCI  18
$$

  *****  SOME WEATHER IN NEARBY STATES *****

CITY           SKY/WX    TMP DP  RH WIND       PRES   REMARKS
GLASGOW MT     FAIR      11   7  84 E10       29.72F WCI  -3
GREAT FALLS MT FAIR      23  15  71 SW13      29.56S WCI  11
CHEYENNE WY    MOCLDY    23  12  62 NW14      29.68F WCI  11
SCOTTSBLUFF NE FAIR      29  18  63 W16       29.71S WCI  17
OMAHA NE       CLOUDY    42  34  73 CALM      29.59F
DES MOINES IA  CLOUDY    48  36  63 SE7       29.67F
DAVENPORT IA   FAIR      50  45  83 S15       29.80F
CHICAGO IL     LGT RAIN  48  43  82 S13       29.89F
EAU CLAIRE WI  CLOUDY    37  30  75 NE3       29.78F
LA CROSSE WI   CLOUDY    40  37  89 SE6       29.77F
$$

  *****  SOME NATIONAL WEATHER *****

CITY           SKY/WX    TMP DP  RH WIND       PRES   REMARKS
LA GUARDIA NY  CLOUDY    48  34  58 S8        30.36S
RALEIGH NC     FAIR      56  47  71 S3        30.30F
ATLANTA GA     CLOUDY    52  47  83 E6        30.27R
NEW ORLEANS LA CLOUDY    72  70  93 S12       30.10F
OKLAHOMA CITY  MOCLDY    59  58  96 S10       29.78F FOG
ALBUQUERQUE NM CLOUDY    48  28  46 S16       29.84S
SALT LAKE CITY FAIR      23  17  78 SE8       29.82S WCI  14
LOS ANGELES CA MOCLDY    52  40  63 VRB7      29.89R
BOISE ID       FLURRIES  29  27  92 E9        29.79F WCI  20
SEATTLE WA     CLOUDY    35  34  96 CALM      29.80R FOG
$$

*** WEATHER ACROSS MANITOBA...SASKATCHEWAN AND ONTARIO ***
                ***ONTARIO***

CITY           SKY/WX    TMP DP  RH WIND       PRES   REMARKS
GERALDTON      LGT SNOW  18  16  93 CALM      29.93F VSB 1
THUNDER BAY    CLOUDY    23  21  93 CALM      29.90F
SIOUX LOOKOUT  FLURRIES  10   3  72 CALM      29.94F
TORONTO        MOCLDY    36  32  87 NE3       30.24F
BIG TROUT LK   CLEAR    -18 -24  76 W3        30.02S
PICKLE LAKE    NOT AVBL
DRYDEN         FLURRIES  12   7  79 NE8       29.92S WCI   1
KENORA         CLEAR      5   0  78 NE6       29.94R WCI  -6
$$
                *** MANITOBA***

CITY           SKY/WX    TMP DP  RH WIND       PRES   REMARKS
BRANDON        PTCLDY    -9 -15  77 W3        29.96R
DAUPHIN        CLEAR     -2  -8  78 W8        29.98R WCI -17
ISLAND LAKE    CRYSTALS -20 -26  76 CALM      30.03R
PILOT MOUND      N/A      0  -4  85 NW2         N/A
THE PAS        CLEAR     -8 -13  77 SE2       29.91S
THOMPSON       CRYSTALS -35 -40  74 CALM      30.01R
WINNIPEG       CLEAR      0  -4  85 NE5       30.01R WCI -10
LYNN LAKE      CLEAR    -33 -36  82 SW2       29.90S
CHURCHILL      LGT SNOW -29 -36  68 W12       30.01R DRFTSNOWWCI -54
GILLAM         CLEAR    -31 -36  75 SW2       30.03R
$$
                ***SASKATCHEWAN***

CITY           SKY/WX    TMP DP  RH WIND       PRES   REMARKS
ESTEVAN        CLEAR     -6  -9  84 E6        29.87S WCI -18
KINDERSLEY     CLOUDY    12   7  79 E7        29.70S WCI   2
LLOYDMINSTER   CLEAR      5   1  85 S10       29.71S WCI -10
PRINCE ALBERT  PTCLDY    -6  -9  84 E2        29.82S
REGINA         CLOUDY     3  -2  78 SE12      29.83S WCI -13
YORKTON        PTCLDY    -6  -9  84 S5        29.88F WCI -17
N. BATTLEFORD  CLOUDY     3  -2  78 SE5       29.79R WCI  -6
LA RONGE       CLEAR    -26 -31  75 NE3       29.86S
SASKATOON      CLEAR      5  -2  72 S7        29.81S WCI  -7
SWIFT CURRENT  FLURRIES  10   9  92 S12       29.66S WCI  -4
$$
NOTE: THESE ARE AUTOMATED STATIONS WITH LIMITED QUALITY CONTROL
      "FAIR" INDICATES FEW OR NO CLOUDS BELOW 12,000 FEET WITH NO
      SIGNIFICANT WEATHER AND/OR OBSTRUCTIONS TO VISIBILITY.
      SKY/WX - SKY CONDITION AND SIGNIFICANT WEATHER.
      TMP - AIR TEMPERATURE.    DP   - DEWPOINT TEMPERATURE.
      RH  - RELATIVE HUMIDITY.  PRES - PRESSURE.
      HX  - HEAT INDEX.         WCI  - WIND CHILL INDEX.
$



USA.gov is the U.S. government's official web portal to all federal, state and local government web resources and services.